WX1N Weather Reports


Display with metric or nautical units.
time (UTC)temp
F
wind
direction
speed
MPH
gust
MPH
rain 1hr
in
rain 24hr
in
rain mn
in
humidity
%
barometer
mb
20260906183003 73 0 0.0 0.0 0.00 0.00 0.00 59 1014.4
20260906182503 73 0 0.0 0.0 0.00 0.00 0.00 63 1014.4
20260906182003 73 0 0.0 0.0 0.00 0.00 0.00 64 1014.4
20260906181503 73 0 0.0 0.0 0.00 0.00 0.00 60 1014.4
20260906181003 73 0 0.0 0.0 0.00 0.00 0.00 65 1014.5
20260906180503 72 0 0.0 0.0 0.00 0.00 0.00 65 1014.6
20260906180004 73 0 0.0 0.0 0.00 0.00 0.00 61 1014.7
20260906175504 73 0 0.0 0.0 0.00 0.00 0.00 64 1014.7
20260906175003 73 0 0.0 0.0 0.00 0.00 0.00 64 1014.8
20260906174503 73 0 0.0 0.0 0.00 0.00 0.00 64 1014.7
20260906174003 73 0 0.0 0.0 0.00 0.00 0.00 68 1014.8
20260906173504 72 0 0.0 0.0 0.00 0.00 0.00 66 1014.8
20260906173003 72 0 0.0 0.0 0.00 0.00 0.00 72 1014.9
20260906172504 71 0 0.0 0.0 0.00 0.00 0.00 72 1015.0
20260906172004 70 0 0.0 0.0 0.00 0.00 0.00 76 1015.1
20260906171504 69 0 0.0 0.0 0.00 0.00 0.00 75 1015.2
20260906171004 69 0 0.0 0.0 0.00 0.00 0.00 75 1015.2
20260906170503 69 0 0.0 0.0 0.00 0.00 0.00 73 1015.2
20260906170003 69 0 0.0 0.0 0.00 0.00 0.00 78 1015.3
20260906165503 69 0 0.0 0.0 0.00 0.00 0.00 77 1015.3
20260906165003 69 0 0.0 0.0 0.00 0.00 0.00 77 1015.3
20260906164504 69 0 0.0 0.0 0.00 0.00 0.00 78 1015.2
20260906164003 68 0 0.0 0.0 0.00 0.00 0.00 79 1015.4
20260906163504 68 0 0.0 0.0 0.00 0.00 0.00 79 1015.6
20260906163004 68 0 0.0 0.0 0.00 0.00 0.00 76 1015.6
20260906162504 67 0 0.0 0.0 0.00 0.00 0.00 73 1015.5
20260906162003 65 0 0.0 0.0 0.00 0.00 0.00 63 1015.6
20260906161503 64 0 0.0 0.0 0.00 0.00 0.00 46 1015.5
20260906161004 63 0 0.0 0.0 0.00 0.00 0.00 56 1015.6
20260906160503 62 0 0.0 0.0 0.00 0.00 0.00 65 1015.7
20260906160004 62 0 0.0 0.0 0.00 0.00 0.00 68 1015.7
20260906155503 62 0 0.0 0.0 0.00 0.00 0.00 70 1015.7
20260906155003 62 0 0.0 0.0 0.00 0.00 0.00 70 1015.8
20260906154503 62 0 0.0 0.0 0.00 0.00 0.00 75 1015.8
20260906154003 62 0 0.0 0.0 0.00 0.00 0.00 79 1015.9
20260906153503 63 0 0.0 0.0 0.00 0.00 0.00 80 1016.0
20260906153004 65 0 0.0 0.0 0.00 0.00 0.00 80 1015.9
20260906152504 66 0 0.0 0.0 0.00 0.00 0.00 79 1015.9
20260906152004 66 0 0.0 0.0 0.00 0.00 0.00 79 1015.7
20260906151504 65 0 0.0 0.0 0.00 0.00 0.00 79 1015.7
20260906151003 64 0 0.0 0.0 0.00 0.00 0.00 80 1015.8
20260906150503 64 0 0.0 0.0 0.00 0.00 0.00 80 1015.8
20260906150003 64 0 0.0 0.0 0.00 0.00 0.00 79 1015.8
20260906145503 64 0 0.0 0.0 0.00 0.00 0.00 78 1015.9
20260906145003 64 0 0.0 0.0 0.00 0.00 0.00 74 1015.8
20260906144519 64 0 0.0 0.0 0.00 0.00 0.00 72 1015.8
20260906144004 63 0 0.0 0.0 0.00 0.00 0.00 72 1015.8
20260906143504 63 0 0.0 0.0 0.00 0.00 0.00 68 1015.8
20260906143003 63 0 0.0 0.0 0.00 0.00 0.00 67 1015.9
20260906142503 62 0 0.0 0.0 0.00 0.00 0.00 67 1016.0
20260906142003 62 0 0.0 0.0 0.00 0.00 0.00 59 1016.0
20260906141504 61 0 0.0 0.0 0.00 0.00 0.00 59 1015.8
20260906141003 61 0 0.0 0.0 0.00 0.00 0.00 63 1015.9
20260906140504 61 0 0.0 0.0 0.00 0.00 0.00 55 1015.8
20260906140004 61 0 0.0 0.0 0.00 0.00 0.00 54 1015.8
20260906135503 61 0 0.0 0.0 0.00 0.00 0.00 51 1015.7
20260906135004 61 0 0.0 0.0 0.00 0.00 0.00 46 1015.7
20260906134504 62 0 0.0 0.0 0.00 0.00 0.00 42 1015.6
20260906134003 61 0 0.0 0.0 0.00 0.00 0.00 40 1015.6
20260906133503 61 0 0.0 0.0 0.00 0.00 0.00 39 1015.6
20260906133003 61 0 0.0 0.0 0.00 0.00 0.00 37 1015.6
20260906132504 60 0 0.0 0.0 0.00 0.00 0.00 37 1015.7
20260906132003 60 0 0.0 0.0 0.00 0.00 0.00 38 1015.8
20260906131503 60 0 0.0 0.0 0.00 0.00 0.00 38 1015.8
20260906131003 60 0 0.0 0.0 0.00 0.00 0.00 38 1015.8
20260906130504 59 0 0.0 0.0 0.00 0.00 0.00 38 1015.9
20260906130004 59 0 0.0 0.0 0.00 0.00 0.00 38 1015.9
20260906125504 59 0 0.0 0.0 0.00 0.00 0.00 39 1015.9
20260906125003 58 0 0.0 0.0 0.00 0.00 0.00 39 1015.8
20260906124503 58 0 0.0 0.0 0.00 0.00 0.00 39 1015.8
20260906124003 58 0 0.0 0.0 0.00 0.00 0.00 39 1015.7
20260906123503 58 0 0.0 0.0 0.00 0.00 0.00 39 1015.7
20260906123004 58 0 0.0 0.0 0.00 0.00 0.00 39 1015.7
20260906122503 58 0 0.0 0.0 0.00 0.00 0.00 40 1015.6
20260906122004 58 0 0.0 0.0 0.00 0.00 0.00 40 1015.6
20260906121504 57 0 0.0 0.0 0.00 0.00 0.00 41 1015.6
20260906121004 57 0 0.0 0.0 0.00 0.00 0.00 41 1015.6
20260906120504 58 0 0.0 0.0 0.00 0.00 0.00 41 1015.6
20260906120004 58 0 0.0 0.0 0.00 0.00 0.00 41 1015.7
20260906115504 58 0 0.0 0.0 0.00 0.00 0.00 40 1015.6
20260906115003 58 0 0.0 0.0 0.00 0.00 0.00 39 1015.6
20260906114503 58 0 0.0 0.0 0.00 0.00 0.00 39 1015.5
20260906114003 58 0 0.0 0.0 0.00 0.00 0.00 40 1015.4
20260906113503 58 0 0.0 0.0 0.00 0.00 0.00 40 1015.3
20260906113003 58 0 0.0 0.0 0.00 0.00 0.00 40 1015.2
20260906112503 58 0 0.0 0.0 0.00 0.00 0.00 41 1015.2
20260906112004 58 0 0.0 0.0 0.00 0.00 0.00 41 1015.1
20260906111504 58 0 0.0 0.0 0.00 0.00 0.00 40 1015.0
20260906111004 58 0 0.0 0.0 0.00 0.00 0.00 40 1015.0
20260906110504 58 0 0.0 0.0 0.00 0.00 0.00 41 1014.9
20260906110004 58 0 0.0 0.0 0.00 0.00 0.00 41 1014.9
20260906105503 58 0 0.0 0.0 0.00 0.00 0.00 41 1014.8
20260906105003 58 0 0.0 0.0 0.00 0.00 0.00 41 1014.8
20260906104503 58 0 0.0 0.0 0.00 0.00 0.00 41 1014.7
20260906104003 58 0 0.0 0.0 0.00 0.00 0.00 41 1014.7
20260906103503 58 0 0.0 0.0 0.00 0.00 0.00 41 1014.6
20260906103004 58 0 0.0 0.0 0.00 0.00 0.00 41 1014.6
20260906102504 58 0 0.0 0.0 0.00 0.00 0.00 41 1014.6
20260906102003 58 0 0.0 0.0 0.00 0.00 0.00 41 1014.6
20260906101503 58 0 0.0 0.0 0.00 0.00 0.00 41 1014.6
20260906101003 58 0 0.0 0.0 0.00 0.00 0.00 42 1014.5
20260906100503 57 0 0.0 0.0 0.00 0.00 0.00 42 1014.6
20260906100004 58 0 0.0 0.0 0.00 0.00 0.00 43 1014.5
20260906095503 58 0 0.0 0.0 0.00 0.00 0.00 42 1014.4
20260906095003 58 0 0.0 0.0 0.00 0.00 0.00 42 1014.3
20260906094504 58 0 0.0 0.0 0.00 0.00 0.00 42 1014.3
20260906094004 58 0 0.0 0.0 0.00 0.00 0.00 43 1014.2
20260906093504 58 0 0.0 0.0 0.00 0.00 0.00 42 1014.2
20260906093004 58 0 0.0 0.0 0.00 0.00 0.00 41 1014.1
20260906092504 58 0 0.0 0.0 0.00 0.00 0.00 41 1014.1
20260906092004 58 0 0.0 0.0 0.00 0.00 0.00 41 1014.0
20260906091503 58 0 0.0 0.0 0.00 0.00 0.00 42 1013.9
20260906091003 58 0 0.0 0.0 0.00 0.00 0.00 42 1013.9
20260906090503 58 0 0.0 0.0 0.00 0.00 0.00 43 1013.8
20260906090004 58 0 0.0 0.0 0.00 0.00 0.00 43 1013.8
20260906085504 58 0 0.0 0.0 0.00 0.00 0.00 43 1013.7
20260906085004 58 0 0.0 0.0 0.00 0.00 0.00 43 1013.7
20260906084504 58 0 0.0 0.0 0.00 0.00 0.00 43 1013.7
20260906084003 58 0 0.0 0.0 0.00 0.00 0.00 43 1013.7
20260906083503 58 0 0.0 0.0 0.00 0.00 0.00 43 1013.6
20260906083003 58 0 0.0 0.0 0.00 0.00 0.00 43 1013.6
20260906082503 58 0 0.0 0.0 0.00 0.00 0.00 43 1013.6
20260906082003 59 0 0.0 0.0 0.00 0.00 0.00 44 1013.6
20260906081504 59 0 0.0 0.0 0.00 0.00 0.00 44 1013.6
20260906081003 59 0 0.0 0.0 0.00 0.00 0.00 44 1013.7
20260906080504 59 0 0.0 0.0 0.00 0.00 0.00 45 1013.7
20260906080004 59 0 0.0 0.0 0.00 0.00 0.00 45 1013.7
20260906075504 60 0 0.0 0.0 0.00 0.00 0.00 44 1013.7
20260906075004 60 0 0.0 0.0 0.00 0.00 0.00 42 1013.6
20260906074504 60 0 0.0 0.0 0.00 0.00 0.00 41 1013.6
20260906074003 60 0 0.0 0.0 0.00 0.00 0.00 41 1013.6
20260906073503 60 0 0.0 0.0 0.00 0.00 0.00 41 1013.5
20260906073003 60 0 0.0 0.0 0.00 0.00 0.00 41 1013.5
20260906072503 60 0 0.0 0.0 0.00 0.00 0.00 41 1013.5
20260906072004 60 0 0.0 0.0 0.00 0.00 0.00 41 1013.4
20260906071504 60 0 0.0 0.0 0.00 0.00 0.00 41 1013.4
20260906071004 60 0 0.0 0.0 0.00 0.00 0.00 41 1013.3
20260906070504 60 0 0.0 0.0 0.00 0.00 0.00 41 1013.4
20260906070004 60 0 0.0 0.0 0.00 0.00 0.00 41 1013.4
20260906065503 60 0 0.0 0.0 0.00 0.00 0.00 41 1013.4
20260906065003 60 0 0.0 0.0 0.00 0.00 0.00 41 1013.3
20260906064503 60 0 0.0 0.0 0.00 0.00 0.00 41 1013.4
20260906064003 60 0 0.0 0.0 0.00 0.00 0.00 42 1013.3
20260906063503 60 0 0.0 0.0 0.00 0.00 0.00 42 1013.3
20260906063004 60 0 0.0 0.0 0.00 0.00 0.00 42 1013.3
20260906062504 60 0 0.0 0.0 0.00 0.00 0.00 41 1013.3
20260906062004 60 0 0.0 0.0 0.00 0.00 0.00 41 1013.3
20260906061504 60 0 0.0 0.0 0.00 0.00 0.00 41 1013.2
20260906061003 60 0 0.0 0.0 0.00 0.00 0.00 43 1013.2
20260906060503 60 0 0.0 0.0 0.00 0.00 0.00 43 1013.2
20260906060003 60 0 0.0 0.0 0.00 0.00 0.00 44 1013.2
20260906055503 60 0 0.0 0.0 0.00 0.00 0.00 44 1013.3
20260906055004 60 0 0.0 0.0 0.00 0.00 0.00 44 1013.3
20260906054504 60 0 0.0 0.0 0.00 0.00 0.00 44 1013.4
20260906054004 60 0 0.0 0.0 0.00 0.00 0.00 44 1013.3
20260906053504 61 0 0.0 0.0 0.00 0.00 0.00 43 1013.4
20260906053003 61 0 0.0 0.0 0.00 0.00 0.00 43 1013.4
20260906052503 61 0 0.0 0.0 0.00 0.00 0.00 43 1013.3
20260906052003 61 0 0.0 0.0 0.00 0.00 0.00 43 1013.4
20260906051503 61 0 0.0 0.0 0.00 0.00 0.00 43 1013.3
20260906051004 61 0 0.0 0.0 0.00 0.00 0.00 43 1013.3
20260906050504 61 0 0.0 0.0 0.00 0.00 0.00 43 1013.4
20260906050004 61 0 0.0 0.0 0.00 0.00 0.00 42 1013.4
20260906045504 61 0 0.0 0.0 0.00 0.00 0.00 42 1013.4
20260906045003 61 0 0.0 0.0 0.00 0.00 0.00 44 1013.4
20260906044503 61 0 0.0 0.0 0.00 0.00 0.00 44 1013.5
20260906044003 61 0 0.0 0.0 0.00 0.00 0.00 44 1013.4
20260906043503 61 0 0.0 0.0 0.00 0.00 0.00 45 1013.4
20260906043002 61 0 0.0 0.0 0.00 0.00 0.00 45 1013.4
20260906042503 61 0 0.0 0.0 0.00 0.00 0.00 46 1013.4
20260906042003 61 0 0.0 0.0 0.00 0.00 0.00 46 1013.4
20260906041503 61 0 0.0 0.0 0.00 0.00 0.00 46 1013.4
20260906041002 61 0 0.0 0.0 0.00 0.00 0.00 46 1013.5
20260906040502 61 0 0.0 0.0 0.00 0.00 0.00 47 1013.5
20260906040002 61 0 0.0 0.0 0.00 0.00 0.00 48 1013.5
20260906035502 61 0 0.0 0.0 0.00 0.00 0.00 48 1013.4
20260906035003 61 0 0.0 0.0 0.00 0.00 0.00 47 1013.4
20260906034503 61 0 0.0 0.0 0.00 0.00 0.00 46 1013.4
20260906034003 61 0 0.0 0.0 0.00 0.00 0.00 47 1013.3
20260906033503 61 0 0.0 0.0 0.00 0.00 0.00 50 1013.3
20260906033003 61 0 0.0 0.0 0.00 0.00 0.00 51 1013.2
20260906032502 61 0 0.0 0.0 0.00 0.00 0.00 51 1013.2
20260906032002 61 0 0.0 0.0 0.00 0.00 0.00 50 1013.2
20260906031502 61 0 0.0 0.0 0.00 0.00 0.00 49 1013.1
20260906031002 61 0 0.0 0.0 0.00 0.00 0.00 50 1013.1
20260906030502 61 0 0.0 0.0 0.00 0.00 0.00 51 1013.0
20260906030003 61 0 0.0 0.0 0.00 0.00 0.00 52 1013.0
20260906025503 61 0 0.0 0.0 0.00 0.00 0.00 55 1013.0
20260906025003 61 0 0.0 0.0 0.00 0.00 0.00 56 1013.0
20260906024502 61 0 0.0 0.0 0.00 0.00 0.00 56 1013.0
20260906024002 61 0 0.0 0.0 0.00 0.00 0.00 57 1013.0
20260906023502 61 0 0.0 0.0 0.00 0.00 0.00 59 1013.0
20260906023003 61 0 0.0 0.0 0.00 0.00 0.00 60 1013.0
20260906022503 61 0 0.0 0.0 0.00 0.00 0.00 60 1013.0
20260906022003 61 0 0.0 0.0 0.00 0.00 0.00 62 1013.0
20260906021503 61 0 0.0 0.0 0.00 0.00 0.00 64 1013.0
20260906021003 61 0 0.0 0.0 0.00 0.00 0.00 66 1013.1
20260906020502 62 0 0.0 0.0 0.00 0.00 0.00 67 1013.1
20260906020002 62 0 0.0 0.0 0.00 0.00 0.00 69 1013.1
20260906015502 62 0 0.0 0.0 0.00 0.00 0.00 71 1013.1
20260906015002 62 0 0.0 0.0 0.00 0.00 0.00 73 1012.9
20260906014502 62 0 0.0 0.0 0.00 0.00 0.00 75 1012.9
20260906014003 62 0 0.0 0.0 0.00 0.00 0.00 77 1012.8
20260906013503 62 0 0.0 0.0 0.00 0.00 0.00 78 1012.8
20260906013002 63 0 0.0 0.0 0.00 0.00 0.00 80 1012.8
20260906012502 63 0 0.0 0.0 0.00 0.00 0.00 81 1012.7
20260906012002 63 0 0.0 0.0 0.00 0.00 0.00 81 1012.7
20260906011502 63 0 0.0 0.0 0.00 0.00 0.00 81 1012.6
20260906011003 63 0 0.0 0.0 0.00 0.00 0.00 82 1012.7
20260906010502 63 0 0.0 0.0 0.00 0.00 0.00 82 1012.6
20260906010003 63 0 0.0 0.0 0.00 0.00 0.00 82 1012.6
20260906005503 63 0 0.0 0.0 0.00 0.00 0.00 82 1012.6
20260906005003 64 0 0.0 0.0 0.00 0.00 0.00 81 1012.4
20260906004503 64 0 0.0 0.0 0.00 0.00 0.00 82 1012.4
20260906004002 65 0 0.0 0.0 0.00 0.00 0.00 82 1012.3
20260906003502 65 0 0.0 0.0 0.00 0.00 0.00 81 1012.3
20260906003002 65 0 0.0 0.0 0.00 0.00 0.00 81 1012.1
20260906002503 66 0 0.0 0.0 0.00 0.00 0.00 81 1012.1
20260906002003 66 0 0.0 0.0 0.00 0.00 0.00 80 1012.0
20260906001503 67 0 0.0 0.0 0.00 0.00 0.00 80 1012.0
20260906001003 67 0 0.0 0.0 0.00 0.00 0.00 80 1012.0
20260906000502 67 0 0.0 0.0 0.00 0.00 0.00 79 1011.9
20260906000002 67 0 0.0 0.0 0.00 0.00 0.00 79 1011.8
20260905235502 67 0 0.0 0.0 0.00 0.00 0.00 79 1011.6
20260905235003 67 0 0.0 0.0 0.00 0.00 0.00 79 1011.5
20260905234503 67 0 0.0 0.0 0.00 0.00 0.00 79 1011.3
20260905234003 67 0 0.0 0.0 0.00 0.00 0.00 79 1011.3
20260905233503 67 0 0.0 0.0 0.00 0.00 0.00 79 1011.2
20260905233003 67 0 0.0 0.0 0.00 0.00 0.00 80 1011.3
20260905232502 67 0 0.0 0.0 0.00 0.00 0.00 80 1011.2
20260905232002 67 0 0.0 0.0 0.00 0.00 0.00 80 1011.2
20260905231502 67 0 0.0 0.0 0.00 0.00 0.00 80 1011.0
20260905231002 68 0 0.0 0.0 0.00 0.00 0.00 81 1010.9
20260905230503 68 0 0.0 0.0 0.00 0.00 0.00 81 1010.9
20260905230003 68 0 0.0 0.0 0.00 0.00 0.00 81 1010.9
20260905225503 68 0 0.0 0.0 0.00 0.00 0.00 81 1010.9
20260905225003 68 0 0.0 0.0 0.00 0.00 0.00 81 1010.9
20260905224503 69 0 0.0 0.0 0.00 0.00 0.00 81 1010.9
20260905224002 69 0 0.0 0.0 0.00 0.00 0.00 80 1010.8
20260905223502 69 0 0.0 0.0 0.00 0.00 0.00 80 1010.8
20260905223002 70 0 0.0 0.0 0.00 0.00 0.00 79 1010.6
20260905222503 70 0 0.0 0.0 0.00 0.00 0.00 79 1010.6
20260905222002 70 0 0.0 0.0 0.00 0.00 0.00 77 1010.6
20260905221503 70 0 0.0 0.0 0.00 0.00 0.00 77 1010.5
20260905221003 70 0 0.0 0.0 0.00 0.00 0.00 76 1010.5
20260905220503 70 0 0.0 0.0 0.00 0.00 0.00 75 1010.6
20260905220003 71 0 0.0 0.0 0.00 0.00 0.00 74 1010.6
20260905215503 71 0 0.0 0.0 0.00 0.00 0.00 73 1010.5
20260905215002 71 0 0.0 0.0 0.00 0.00 0.00 72 1010.5
20260905214502 71 0 0.0 0.0 0.00 0.00 0.00 73 1010.4
20260905214002 71 0 0.0 0.0 0.00 0.00 0.00 74 1010.3
20260905213503 70 0 0.0 0.0 0.00 0.00 0.00 74 1010.3
20260905213003 70 0 0.0 0.0 0.00 0.00 0.00 73 1010.2
20260905212503 70 0 0.0 0.0 0.00 0.00 0.00 72 1010.2
20260905212003 71 0 0.0 0.0 0.00 0.00 0.00 74 1010.2
20260905211503 71 0 0.0 0.0 0.00 0.00 0.00 71 1010.1
20260905211003 71 0 0.0 0.0 0.00 0.00 0.00 71 1010.1
20260905210503 72 0 0.0 0.0 0.00 0.00 0.00 70 1010.1
20260905210003 72 0 0.0 0.0 0.00 0.00 0.00 69 1010.1
20260905205503 72 0 0.0 0.0 0.00 0.00 0.00 73 1010.1
20260905205002 72 0 0.0 0.0 0.00 0.00 0.00 74 1010.0
20260905204502 71 0 0.0 0.0 0.00 0.00 0.00 71 1009.9
20260905204002 71 0 0.0 0.0 0.00 0.00 0.00 72 1010.0
20260905203502 71 0 0.0 0.0 0.00 0.00 0.00 72 1009.9
20260905203002 71 0 0.0 0.0 0.00 0.00 0.00 72 1010.0
20260905202502 71 0 0.0 0.0 0.00 0.00 0.00 72 1010.0
20260905202003 71 0 0.0 0.0 0.00 0.00 0.00 72 1009.9
20260905201503 71 0 0.0 0.0 0.00 0.00 0.00 72 1009.9
20260905201003 72 0 0.0 0.0 0.00 0.00 0.00 72 1009.8
20260905200503 72 0 0.0 0.0 0.00 0.00 0.00 71 1009.9
20260905200003 72 0 0.0 0.0 0.00 0.00 0.00 72 1009.9
20260905195502 72 0 0.0 0.0 0.00 0.00 0.00 70 1009.9
20260905195002 72 0 0.0 0.0 0.00 0.00 0.00 70 1009.9
20260905194502 72 0 0.0 0.0 0.00 0.00 0.00 69 1009.8
20260905194003 72 0 0.0 0.0 0.00 0.00 0.00 69 1009.8
20260905193502 72 0 0.0 0.0 0.00 0.00 0.00 70 1009.8
20260905193003 72 0 0.0 0.0 0.00 0.00 0.00 71 1009.8
20260905192503 72 0 0.0 0.0 0.00 0.00 0.00 68 1009.9
20260905192003 72 0 0.0 0.0 0.00 0.00 0.00 67 1009.9
20260905191503 73 0 0.0 0.0 0.00 0.00 0.00 68 1009.8
20260905191003 73 0 0.0 0.0 0.00 0.00 0.00 68 1009.8
20260905190503 73 0 0.0 0.0 0.00 0.00 0.00 69 1009.7
20260905190003 73 0 0.0 0.0 0.00 0.00 0.00 70 1009.8
20260905185503 73 0 0.0 0.0 0.00 0.00 0.00 69 1009.7
20260905185002 74 0 0.0 0.0 0.00 0.00 0.00 66 1009.8
20260905184502 74 0 0.0 0.0 0.00 0.00 0.00 69 1009.7
20260905184002 74 0 0.0 0.0 0.00 0.00 0.00 68 1009.6
20260905183502 75 0 0.0 0.0 0.00 0.00 0.00 67 1009.6